Regional Weather Roundup
Issued by NWS Goodland, KS

Home | Current Version | Previous Version | Text Only | Print | Product List | Glossary Off
Versions: 1 2 3 4 5 6 7 8 9 10 11 12 13 14 15 16 17 18 19 20 21 22 23 24 25 26 27 28 29 30 31 32 33 34 35 36 37 38 39 40 41 42 43 44 45 46 47 48 49 50

425
ASUS43 KGLD 261859
RWRGLD

GOODLAND FORECAST AREA HOURLY WEATHER ROUNDUP
NATIONAL WEATHER SERVICE GOODLAND KS
100 PM MDT FRI MAY 26 2017

...OFFICIAL OBSERVATIONS...

CITY           SKY/WX    TMP DP  RH WIND       PRES   REMARKS
GOODLAND KS    SUNNY     68  48  48 VRB7      29.93F
HILL CITY KS   SUNNY     75  51  43 NE9       29.89F
IMPERIAL NEB   SUNNY     68  45  43 NE9       29.92F
MCCOOK NEB     SUNNY     72  46  39 MISG      29.90F
AKRON CO       SUNNY     63  46  54 SE13      29.93F
BURLINGTON CO  SUNNY     68  54  60 E8        29.94F
LIMON CO       SUNNY     69  50  50 S15G26    29.94F
$$

...UNOFFICIAL OBSERVATIONS...

CITY           SKY/WX    TMP DP  RH WIND       PRES   REMARKS
LENORA KS        N/A     68  32  26 MISG        N/A
NORTON KS      SUNNY     72  46  40 NE7       29.89S
SHARON SPRINGS   N/A     70  52  52 NE5G15      N/A
TRENTON NEB      N/A     68  32  26 SE5         N/A
$$




USA.gov is the U.S. government's official web portal to all federal, state and local government web resources and services.